Wind_Speed
9 9 10 9 9 9 9 9 8 8 8 7 7 8 8 8 7 7 6 5 4 3 2 2 2 2 3 3 3 4 3 3 3 3 4 4 4 4 5 5 5 5 6
10 11 11 10 10 10 10 10 10 9 9 9 9 9 9 9 9 8 8 7 5 4 4 3 3 3 3 3 3 3 2 2 2 2 3 3 3 4 4 4 4 5 5
11 11 12 12 12 11 11 11 11 10 10 11 11 11 10 10 10 10 9 8 7 6 6 5 4 4 4 3 3 3 3 2 1 1 1 2 2 2 3 3 3 4 4
13 13 13 13 13 13 13 12 12 12 11 11 12 12 12 11 11 11 10 10 9 8 8 7 6 6 5 5 4 4 4 3 2 1 1 1 1 1 2 2 2 3 3
14 13 13 14 14 14 14 14 13 13 13 13 13 13 13 13 12 12 12 11 11 10 9 9 8 8 7 7 6 6 5 5 4 3 2 2 2 1 1 1 1 1 2
14 14 13 14 14 14 14 15 14 14 14 14 14 15 15 14 14 14 13 13 12 12 11 11 10 10 9 9 8 8 7 7 6 5 4 4 3 2 2 2 1 1 1
14 14 14 14 14 14 15 15 15 15 15 15 15 16 16 16 16 16 16 15 15 14 13 13 12 11 11 10 10 10 9 8 8 6 6 5 5 4 4 4 3 3 2
14 14 14 14 14 15 15 15 16 16 16 17 17 17 17 17 18 18 17 17 17 16 16 15 14 13 13 12 12 12 11 10 10 8 8 7 7 6 6 5 5 5 4
14 15 15 16 15 15 16 16 16 17 17 18 19 19 19 19 19 19 19 19 19 18 18 17 16 15 15 14 14 14 13 12 12 10 9 9 8 8 8 7 7 7 7
15 16 16 17 16 16 16 17 18 18 18 19 20 20 21 21 21 21 21 21 21 20 19 18 18 17 17 17 16 16 15 14 14 13 12 11 11 10 10 9 9 9 9
16 16 16 16 17 16 17 17 18 18 18 19 20 21 21 22 22 22 22 23 23 22 20 20 20 19 19 19 18 17 16 16 15 15 14 13 13 12 12 11 11 11 11
18 17 16 17 17 18 18 17 17 17 18 19 20 21 22 22 23 24 24 24 24 23 22 21 21 20 20 20 20 19 18 18 17 17 16 16 15 15 14 13 13 13 12
18 18 17 17 17 17 18 18 18 18 19 20 21 21 22 22 23 25 25 25 24 24 24 23 22 22 22 22 22 21 21 20 19 17 17 18 18 18 17 16 15 15 15
19 18 18 18 18 19 19 18 18 20 20 20 22 22 22 23 24 25 26 25 25 25 24 23 24 24 23 23 23 23 22 22 21 19 19 20 20 20 20 19 18 18 18
19 17 17 19 20 21 21 22 21 20 21 22 21 23 23 22 23 24 25 25 25 24 24 24 24 25 26 24 23 24 24 24 23 22 21 22 22 23 22 21 20 20 20
19 19 19 19 20 21 21 22 22 21 22 22 23 23 23 23 24 25 25 25 25 26 25 24 25 25 25 25 25 25 24 24 24 23 23 23 24 24 24 23 22 21 22
21 21 21 20 21 21 22 22 22 23 23 23 23 23 23 23 24 25 25 26 26 26 26 26 26 26 26 26 26 26 25 24 24 24 24 24 24 24 24 24 23 23 23
21 22 22 21 21 22 23 23 23 24 24 24 23 24 24 25 26 26 26 26 27 27 28 28 28 28 27 26 27 28 27 26 25 25 24 24 24 25 24 25 25 24 24
22 22 23 22 23 23 24 24 25 25 25 25 25 25 26 26 27 26 26 26 26 27 27 27 28 28 27 28 28 28 27 28 27 25 23 23 24 24 25 25 25 25 26
22 23 24 24 25 25 25 26 26 27 27 27 27 26 27 27 27 27 27 27 27 27 27 27 27 28 28 28 29 28 28 27 27 26 25 24 24 25 26 26 26 26 27
23 24 25 25 26 27 27 27 27 28 28 28 28 28 28 28 28 28 28 27 28 28 28 28 28 27 28 29 29 29 29 28 28 28 27 26 25 26 27 28 27 27 29
23 24 25 26 27 27 27 27 28 28 28 28 28 29 29 29 30 30 30 28 27 27 28 28 28 28 28 28 29 29 30 29 29 29 28 27 26 27 27 29 29 29 30
23 24 25 26 27 27 28 28 29 29 29 29 29 29 29 30 30 29 29 29 28 28 28 28 28 27 27 27 28 29 31 31 29 28 28 28 28 28 29 30 31 31 31
24 25 26 27 27 28 28 29 29 29 29 29 29 29 29 28 29 28 29 28 28 28 28 28 28 28 27 26 27 28 30 30 30 29 28 28 29 29 29 29 31 33 33
25 25 26 27 28 28 29 30 30 30 30 29 29 29 28 28 28 28 29 29 29 29 29 28 28 28 28 28 28 28 28 29 30 30 29 29 29 29 30 31 31 32 33
25 26 26 27 28 28 29 29 29 30 30 29 29 28 28 27 27 27 29 29 29 29 30 30 29 29 28 28 29 28 28 28 28 29 30 30 30 31 31 33 33 33 34
Wind_Direction
241 236 232 226 222 218 217 217 218 221 224 226 228 229 233 235 233 233 235 237 241 248 269 298 330 359 9 20 27 33 40 51 59 52 51 57 58 55 56 58 59 57 54
243 241 238 233 229 226 225 225 226 229 229 233 237 239 241 244 243 244 244 244 247 253 264 280 301 322 339 348 357 3 8 22 40 46 48 55 60 55 52 53 53 53 51
247 245 242 240 235 233 231 229 231 234 235 237 242 244 245 248 250 251 251 251 252 257 264 274 290 301 311 316 320 320 319 328 332 14 43 40 51 53 49 48 47 47 46
250 249 245 242 240 238 237 236 235 237 239 241 245 247 249 251 254 254 255 257 257 261 266 274 284 294 299 298 298 297 294 295 288 270 280 322 347 31 36 40 42 39 37
251 250 247 245 243 242 242 242 242 242 243 245 248 251 254 255 257 257 258 260 262 264 268 274 280 287 292 293 291 289 286 284 279 269 260 271 281 294 342 355 18 20 24
248 248 248 247 246 245 245 245 245 247 248 249 251 254 256 258 259 258 260 262 263 265 268 273 277 280 284 287 286 285 283 278 275 270 263 262 268 265 273 286 291 298 326
249 250 250 249 247 248 248 248 247 247 250 252 252 254 258 260 259 259 260 262 262 264 268 271 274 277 279 281 282 282 281 277 274 271 265 262 264 261 261 263 267 266 267
248 250 250 250 250 251 251 251 250 251 253 255 255 256 259 260 260 259 260 260 261 262 266 268 270 274 277 278 279 280 278 275 272 269 263 261 262 262 259 256 258 258 257
251 254 253 253 253 253 253 253 253 255 257 258 259 259 261 263 262 260 259 260 261 262 264 265 268 271 272 275 277 278 276 273 271 269 262 260 259 261 260 258 257 256 255
257 260 258 259 255 253 253 254 255 257 259 260 261 262 264 264 263 262 261 262 263 263 263 264 266 268 269 272 275 275 273 272 269 267 261 257 258 259 259 258 259 256 253
261 260 263 260 258 257 256 257 257 259 260 262 264 264 265 265 263 262 263 264 264 263 262 264 264 265 267 269 273 272 271 271 269 266 263 262 261 261 259 258 257 256 254
263 263 265 266 265 261 259 260 261 263 264 266 267 267 268 266 263 262 262 262 264 263 264 265 266 267 266 267 268 269 268 269 269 266 262 263 263 261 259 257 256 256 255
268 269 270 274 275 269 265 262 264 266 268 268 269 270 270 267 263 260 261 261 263 263 263 264 267 268 266 265 265 267 268 267 269 269 264 263 263 261 262 259 258 256 255
266 268 275 275 276 275 272 272 269 268 274 272 269 272 273 268 264 263 264 261 262 261 260 262 265 268 267 264 263 265 268 269 269 266 263 263 261 261 260 259 259 257 257
266 268 275 278 278 278 278 279 278 277 278 278 274 276 275 268 267 269 270 266 262 264 265 264 266 267 267 263 263 265 268 268 267 266 264 263 261 259 259 259 259 258 257
272 274 276 278 280 281 279 279 277 277 277 278 276 276 275 269 268 269 271 269 267 267 269 267 267 268 266 264 265 266 266 267 268 268 264 263 261 260 258 258 258 258 257
278 280 283 280 281 282 281 281 278 277 277 278 278 277 276 274 274 272 270 270 271 270 269 268 270 267 266 265 266 267 265 265 265 266 266 265 261 260 259 257 257 257 257
281 283 283 282 282 282 281 280 281 281 279 278 277 276 273 274 275 274 272 272 272 270 269 267 267 267 266 266 266 266 265 265 264 266 266 264 261 261 261 259 259 258 257
279 280 280 281 280 281 281 280 280 281 280 278 276 275 273 273 273 273 273 273 273 272 271 267 264 265 266 266 265 266 265 265 264 266 265 265 264 262 262 260 259 259 258
278 278 279 281 280 279 279 278 278 279 278 276 275 275 274 273 273 272 273 272 272 271 270 267 266 265 265 264 265 264 265 265 265 264 264 265 265 262 261 260 259 259 260
278 278 279 280 280 278 277 277 277 277 276 275 274 273 272 271 272 272 272 272 271 269 266 266 265 266 266 264 265 264 263 265 265 264 264 262 263 262 263 263 259 259 258
278 279 279 279 279 278 277 277 277 276 275 275 274 272 272 271 272 272 272 271 271 270 266 267 266 267 265 265 263 263 263 263 264 263 262 260 260 261 262 264 262 261 261
279 280 279 279 278 278 278 277 277 277 276 276 276 275 273 272 271 270 269 269 270 269 267 268 266 266 265 264 261 261 262 263 263 261 263 262 262 262 261 261 260 260 261
280 280 280 279 279 278 277 276 276 277 276 276 277 275 274 273 271 269 268 267 267 267 268 267 266 265 266 265 263 262 262 263 264 265 263 263 264 264 262 262 263 262 261
281 280 280 280 279 279 278 277 275 276 276 277 277 276 274 274 273 271 268 266 266 266 266 269 268 268 268 267 264 263 264 265 264 263 263 262 264 265 263 264 266 265 264
282 282 281 280 280 280 279 278 275 275 276 277 276 275 274 274 273 271 268 268 267 266 266 268 267 267 267 267 267 266 266 264 265 263 264 263 266 267 267 267 267 266 265
Height
5893 5893 5894 5896 5896 5897 5898 5899 5899 5900 5901 5902 5903 5903 5904 5904 5904 5904 5904 5904 5903 5903 5902 5902 5902 5901 5900 5900 5899 5899 5899 5899 5899 5899 5899 5898 5898 5899 5899 5898 5898 5898 5898
5893 5893 5894 5894 5895 5896 5897 5898 5899 5899 5900 5901 5902 5903 5903 5904 5904 5904 5904 5903 5903 5903 5902 5902 5902 5901 5900 5900 5899 5899 5899 5899 5899 5899 5899 5899 5899 5899 5899 5899 5899 5899 5899
5891 5892 5892 5893 5894 5895 5896 5897 5897 5898 5899 5900 5901 5901 5902 5903 5903 5903 5903 5903 5903 5902 5902 5902 5901 5901 5900 5900 5899 5899 5899 5899 5899 5899 5899 5899 5899 5899 5899 5899 5899 5899 5899
5890 5890 5891 5892 5893 5894 5895 5895 5896 5897 5897 5898 5899 5900 5901 5901 5902 5902 5902 5902 5902 5902 5902 5901 5901 5901 5900 5900 5899 5899 5899 5899 5899 5899 5899 5899 5899 5899 5899 5899 5899 5899 5899
5888 5889 5890 5890 5891 5892 5893 5894 5894 5895 5896 5897 5897 5898 5899 5900 5900 5900 5901 5901 5901 5901 5901 5900 5900 5900 5900 5899 5899 5898 5898 5898 5898 5898 5899 5899 5899 5899 5899 5899 5899 5899 5899
5886 5887 5887 5888 5889 5890 5891 5892 5893 5893 5894 5895 5896 5896 5897 5897 5898 5898 5898 5899 5899 5899 5899 5899 5899 5899 5899 5898 5898 5898 5898 5898 5898 5898 5898 5898 5898 5898 5898 5899 5899 5899 5899
5884 5884 5885 5886 5887 5888 5889 5890 5890 5891 5892 5892 5893 5894 5894 5895 5895 5896 5896 5896 5896 5897 5897 5897 5897 5897 5897 5897 5897 5897 5897 5897 5897 5897 5897 5897 5897 5898 5898 5898 5898 5898 5899
5881 5882 5883 5884 5885 5886 5886 5887 5888 5889 5889 5890 5891 5891 5891 5892 5892 5893 5893 5893 5893 5894 5894 5894 5895 5895 5895 5895 5895 5895 5895 5895 5896 5896 5896 5896 5896 5897 5897 5897 5897 5898 5898
5878 5879 5880 5881 5882 5883 5883 5884 5885 5886 5887 5887 5888 5888 5889 5889 5889 5889 5890 5890 5890 5891 5891 5891 5892 5892 5893 5893 5893 5893 5893 5893 5894 5895 5895 5895 5895 5895 5896 5896 5896 5897 5897
5875 5876 5877 5878 5878 5879 5880 5881 5882 5883 5883 5884 5884 5885 5885 5885 5886 5886 5886 5886 5887 5887 5888 5888 5889 5889 5890 5890 5890 5890 5891 5891 5892 5892 5893 5892 5893 5893 5894 5895 5895 5895 5896
5872 5872 5874 5875 5876 5876 5877 5877 5878 5879 5879 5880 5881 5881 5881 5881 5882 5882 5882 5883 5883 5884 5885 5885 5885 5886 5886 5887 5887 5888 5888 5888 5889 5890 5889 5889 5890 5891 5892 5892 5893 5893 5894
5868 5869 5870 5871 5872 5873 5873 5874 5875 5875 5876 5876 5876 5877 5877 5877 5877 5878 5878 5878 5879 5880 5881 5881 5882 5882 5882 5883 5884 5884 5885 5885 5886 5887 5887 5888 5888 5889 5890 5890 5891 5891 5892
5865 5865 5866 5867 5868 5869 5869 5870 5871 5871 5871 5872 5872 5872 5872 5872 5873 5873 5873 5874 5875 5875 5876 5877 5878 5878 5878 5879 5880 5880 5881 5882 5883 5883 5884 5885 5885 5886 5887 5887 5888 5888 5889
5860 5860 5862 5863 5864 5865 5865 5865 5866 5866 5866 5867 5867 5867 5867 5867 5868 5869 5869 5869 5870 5870 5871 5872 5873 5873 5873 5874 5875 5876 5877 5877 5878 5880 5881 5881 5880 5882 5883 5884 5884 5885 5886
5853 5856 5857 5859 5860 5861 5861 5861 5862 5863 5863 5863 5862 5862 5861 5862 5863 5863 5864 5864 5864 5864 5865 5866 5867 5868 5868 5868 5870 5871 5872 5872 5873 5875 5876 5876 5876 5878 5879 5879 5880 5881 5882
5851 5851 5854 5855 5856 5856 5857 5857 5857 5858 5858 5858 5858 5858 5857 5856 5857 5858 5859 5859 5860 5860 5860 5861 5862 5862 5863 5864 5865 5866 5867 5867 5868 5869 5870 5870 5871 5872 5874 5875 5875 5877 5878
5848 5849 5850 5851 5851 5852 5852 5852 5852 5853 5853 5853 5853 5852 5852 5852 5853 5853 5854 5854 5854 5854 5855 5856 5857 5858 5858 5859 5859 5860 5861 5862 5863 5864 5865 5865 5866 5867 5868 5869 5870 5871 5873
5845 5845 5846 5846 5847 5847 5847 5848 5847 5848 5848 5848 5848 5848 5848 5848 5847 5847 5848 5848 5848 5848 5849 5850 5851 5853 5853 5853 5854 5855 5855 5856 5857 5858 5859 5860 5861 5862 5863 5864 5865 5867 5868
5840 5841 5842 5842 5842 5842 5842 5842 5842 5842 5842 5842 5842 5842 5843 5842 5842 5842 5842 5843 5843 5843 5843 5844 5845 5846 5847 5847 5848 5849 5850 5851 5851 5853 5854 5854 5856 5856 5857 5859 5860 5861 5862
5836 5836 5837 5837 5837 5837 5837 5837 5837 5836 5836 5836 5837 5837 5837 5837 5836 5836 5837 5837 5837 5837 5837 5838 5838 5839 5840 5841 5842 5842 5843 5844 5846 5847 5848 5849 5850 5851 5852 5853 5854 5855 5856
5831 5831 5831 5831 5832 5831 5831 5831 5831 5830 5830 5830 5830 5830 5830 5830 5830 5830 5830 5831 5831 5831 5831 5832 5833 5833 5833 5834 5835 5836 5837 5838 5840 5841 5842 5843 5844 5845 5846 5847 5848 5849 5850
5827 5826 5826 5826 5826 5825 5825 5825 5824 5824 5824 5824 5824 5824 5824 5824 5824 5824 5824 5824 5824 5824 5825 5826 5826 5827 5827 5828 5828 5829 5831 5833 5834 5835 5836 5837 5838 5839 5840 5841 5842 5843 5844
5822 5822 5821 5821 5820 5820 5819 5819 5818 5818 5818 5818 5817 5817 5817 5817 5817 5817 5817 5818 5818 5818 5819 5820 5820 5820 5821 5821 5822 5823 5824 5825 5826 5828 5829 5831 5831 5832 5834 5834 5835 5836 5837
5817 5816 5816 5815 5815 5814 5813 5812 5812 5811 5811 5811 5811 5810 5810 5810 5810 5810 5811 5811 5812 5812 5813 5813 5814 5814 5814 5815 5815 5816 5818 5818 5820 5821 5822 5823 5825 5826 5826 5827 5828 5829 5829
5812 5811 5810 5809 5809 5808 5807 5806 5805 5805 5804 5804 5804 5804 5803 5803 5803 5803 5804 5805 5805 5806 5806 5807 5807 5808 5808 5809 5809 5810 5810 5812 5813 5814 5815 5817 5818 5818 5819 5820 5821 5821 5822
5807 5806 5805 5804 5802 5802 5800 5799 5799 5798 5798 5797 5797 5797 5797 5797 5797 5797 5797 5798 5799 5799 5800 5800 5801 5802 5802 5802 5803 5803 5804 5805 5806 5807 5808 5809 5810 5811 5811 5812 5812 5813 5814